sat.trackr.live / text

‹ back to catalog

PLEIADES 1B

NORAD 39019 · 2012-068A

PAYLOAD ACTIVE UNKNOWN

§ Identity

Operator
Country
FR
Launch date
2012-12-02
Launch site
FRGUI
Launch vehicle
Mass (kg)
RCS (m²)
5.44

Purposes: earth_obs

External: N2YO · Heavens-Above · Gunter

§ Orbital elements

Epoch: 2026-05-25T03:59:50.644896Z

Period
98.73 min
Inclination
98.1943°
Eccentricity
0.0001366
Mean motion
14.58542514 rev/d
Perigee alt
696.9 km
Apogee alt
698.9 km
Semi-major
7,076.0 km
B*
1.3086e-5
RAAN
220.5345°
Arg perigee
103.3887°
Mean anomaly
256.7465°
Rev number
71,749

§ Raw data

PLEIADES 1B1 39019U 12068A   26145.16655839  .00000015  00000+0  13086-4 0  99972 39019  98.1943 220.5345 0001366 103.3887 256.7465 14.58542514717497

JSON: /api/v1/satellites/39019 · /tle

For live sub-satellite position, see the globe view (requires WebGL).

§ Visibility from observer

Set your observer location to see the next 7 days of passes ≥ 10°. The values pass through the URL so the page stays shareable.

No JS? Fill the form by hand. The geolocation button needs JavaScript.

§ Radio — SatNOGS DB

ModeDescriptionDownlinkUplink
BPSK S-band telemetry 2.269 GHz

1 transmitter · refreshed weekly from db.satnogs.org